TimeEST,TemperatureF,Dew PointF,Humidity,Sea Level PressureIn,VisibilityMPH,Wind Direction,Wind SpeedMPH,Gust SpeedMPH,PrecipitationIn,Events,Conditions,WindDirDegrees,DateUTC
12:52 AM,26.1,12.9,58,29.78,10.0,West,17.3,25.3,N/A,,Scattered Clouds,270,2013-02-21 05:52:00
1:52 AM,26.1,12.9,58,29.78,10.0,WNW,17.3,25.3,N/A,,Mostly Cloudy,290,2013-02-21 06:52:00
2:52 AM,26.1,12.0,55,29.79,10.0,West,6.9,-,N/A,,Clear,280,2013-02-21 07:52:00
3:52 AM,25.0,12.0,58,29.80,10.0,WNW,8.1,-,N/A,,Mostly Cloudy,290,2013-02-21 08:52:00
4:52 AM,24.1,10.9,57,29.80,10.0,West,12.7,16.1,N/A,,Partly Cloudy,260,2013-02-21 09:52:00
5:52 AM,24.1,10.0,55,29.81,10.0,WNW,17.3,26.5,N/A,,Clear,290,2013-02-21 10:52:00
6:52 AM,23.0,9.0,55,29.81,10.0,WNW,12.7,26.5,N/A,,Partly Cloudy,300,2013-02-21 11:52:00
7:52 AM,24.1,9.0,53,29.83,10.0,NW,16.1,27.6,N/A,,Clear,310,2013-02-21 12:52:00
8:52 AM,24.1,9.0,53,29.83,10.0,NW,18.4,26.5,N/A,,Partly Cloudy,310,2013-02-21 13:52:00
9:52 AM,27.0,9.0,47,29.83,10.0,NW,18.4,27.6,N/A,,Clear,310,2013-02-21 14:52:00
10:52 AM,28.0,9.0,45,29.84,10.0,NW,17.3,25.3,N/A,,Partly Cloudy,310,2013-02-21 15:52:00
11:52 AM,28.9,10.9,47,29.84,10.0,NW,19.6,28.8,N/A,,Mostly Cloudy,320,2013-02-21 16:52:00
12:52 PM,30.0,10.9,45,29.84,10.0,WNW,18.4,31.1,N/A,,Clear,300,2013-02-21 17:52:00
1:52 PM,30.9,10.9,43,29.85,10.0,WNW,21.9,31.1,N/A,,Partly Cloudy,300,2013-02-21 18:52:00
2:52 PM,30.9,12.0,46,29.88,10.0,NNW,21.9,28.8,N/A,,Clear,330,2013-02-21 19:52:00
3:52 PM,30.0,10.9,45,29.91,10.0,NW,16.1,32.2,N/A,,Scattered Clouds,320,2013-02-21 20:52:00
4:52 PM,28.0,10.9,49,29.96,10.0,NNW,19.6,31.1,N/A,,Clear,330,2013-02-21 21:52:00
5:52 PM,27.0,12.0,53,30.01,10.0,NW,16.1,-,N/A,,Clear,310,2013-02-21 22:52:00
6:52 PM,27.0,12.9,56,30.05,10.0,NW,12.7,21.9,N/A,,Clear,310,2013-02-21 23:52:00
7:52 PM,27.0,14.0,58,30.08,10.0,NW,12.7,20.7,N/A,,Clear,320,2013-02-22 00:52:00
8:52 PM,26.1,14.0,60,30.12,10.0,NW,10.4,-,N/A,,Clear,320,2013-02-22 01:52:00
9:52 PM,26.1,15.1,63,30.13,10.0,NW,5.8,-,N/A,,Clear,310,2013-02-22 02:52:00
10:52 PM,26.1,15.1,63,30.17,10.0,WNW,12.7,-,N/A,,Clear,300,2013-02-22 03:52:00
11:52 PM,25.0,15.1,66,30.23,10.0,NW,12.7,-,N/A,,Clear,310,2013-02-22 04:52:00